Location: eljas
(40.1958°N, 6.8661°W)
Time: 17:27:09
(UTC+02:00)

Amateur Radio Satellites - All Passes

Search period start: 17 April 2014 16:57
Search period end: 18 April 2014 16:57
Location: eljas, 40.1958°N, 6.8661°W

Satellite Date Start Highest point End Downlink Frequencies (MHz)
Time Altitude Azimuth
SO-50 17 Apr 17:04:10 17:07:44 24° 112° (ESE) 17:11:19 436.795 FM
Gurwin Techsat 1B 17 Apr 17:09:38 17:14:47 51° 260° (W) 17:19:58 435.225 FM
ISS 17 Apr 17:10:11 17:12:55 24° 133° (SE) 17:15:41 145.800 FM
AO-7 17 Apr 17:13:47 17:21:34 48° 63° (ENE) 17:29:22 29.400 - 29.500 MHz
OPAL 17 Apr 17:34:44 17:39:57 74° 288° (WNW) 17:45:08 ?
TMSAT-1 17 Apr 18:00:33 18:04:49 25° 266° (W) 18:09:07 436.925 FM
RS-15 17 Apr 18:06:44 18:17:45 82° 58° (ENE) 18:29:03 29.354 - 29.394 USB, Beacon 29.352 USB
Uosat F 17 Apr 18:30:58 18:35:23 30° 263° (W) 18:39:48 435.120 FM
SO-50 17 Apr 18:43:56 18:48:06 37° 309° (NW) 18:52:18 436.795 FM
JAS-1B 17 Apr 18:45:45 18:53:01 32° 263° (W) 18:59:21 435.800 - 435.900 CW/SSB
ISS 17 Apr 18:46:22 18:49:32 39° 330° (NNW) 18:52:43 145.800 FM
AO-7 17 Apr 19:06:54 19:14:26 38° 261° (W) 19:22:02 29.400 - 29.500 MHz
JAS-2 17 Apr 19:28:12 19:32:04 19° 64° (ENE) 19:35:43 435.800 - 435.900 CW/SSB, 435.910 FM
Hamsat 17 Apr 19:36:07 19:40:10 50° 74° (ENE) 19:44:16 145.90 MHz
UOSAT-12 17 Apr 19:39:41 19:44:02 48° 117° (ESE) 19:48:31 437.025 FM, 437.400 FM
STRAND 1 17 Apr 20:09:54 20:13:30 19° 93° (E) 20:17:04 ?
RS-15 17 Apr 20:20:37 20:28:50 25° 258° (WSW) 20:37:17 29.354 - 29.394 USB, Beacon 29.352 USB
ISS 17 Apr 20:25:12 20:27:00 14° 349° (N) 20:28:49 145.800 FM
SO-67 17 Apr 20:58:57 21:02:27 87° 78° (ENE) 21:05:58 435.3500 MHz FM
JAS-2 17 Apr 21:10:51 21:16:49 60° 259° (WSW) 21:22:12 435.800 - 435.900 CW/SSB, 435.910 FM
Hamsat 17 Apr 21:14:34 21:16:27 13° 269° (W) 21:18:21 145.90 MHz
UOSAT-12 17 Apr 21:20:53 21:24:27 22° 315° (NW) 21:28:06 437.025 FM, 437.400 FM
Saudisat 1A 17 Apr 21:45:01 21:49:12 39° 52° (NE) 21:53:19 436.775 MHz
STRAND 1 17 Apr 21:48:02 21:52:56 48° 289° (WNW) 21:57:48 ?
ISS 17 Apr 22:03:10 22:04:53 13° 10° (N) 22:06:36 145.800 FM
HO-68 17 Apr 22:11:31 22:18:22 52° 67° (ENE) 22:25:14 435.675 MHz FM
Oscar 11 17 Apr 22:40:47 22:44:20 26° 69° (ENE) 22:47:54 145.825 FM, Beacon 2401.500 USB
MaSat-1 17 Apr 23:15:59 23:18:37 26° 112° (ESE) 23:20:59 437.345 MHz
Saudisat 1A 17 Apr 23:25:14 23:28:32 21° 249° (WSW) 23:31:49 436.775 MHz
ISS 17 Apr 23:39:16 23:42:24 35° 29° (NNE) 23:45:31 145.800 FM
FUNcube-1 17 Apr 23:59:51 00:04:01 59° 74° (ENE) 00:08:08 145.950 - 145.970 MHz USB
HO-68 18 Apr 00:00:17 00:06:18 29° 265° (W) 00:12:22 435.675 MHz FM
Oscar 11 18 Apr 00:16:47 00:20:26 27° 264° (W) 00:24:06 145.825 FM, Beacon 2401.500 USB
MaSat-1 18 Apr 00:56:46 00:57:04 10° 303° (WNW) 00:57:22 437.345 MHz
ISS 18 Apr 01:16:09 01:19:05 28° 226° (SW) 01:21:59 145.800 FM
PCSat 18 Apr 01:25:16 01:27:56 14° 103° (ESE) 01:30:37 145.825 MHz
SO-50 18 Apr 01:35:47 01:39:26 22° 46° (NE) 01:43:08 436.795 FM
FUNcube-1 18 Apr 01:39:46 01:40:48 11° 270° (W) 01:41:49 145.950 - 145.970 MHz USB
Sapphire 18 Apr 02:20:34 02:25:38 42° 112° (ESE) 02:30:43 437.095 MHz 1200 baud AX-25 AFSK
Oscar 19 18 Apr 02:48:52 02:51:04 13° 90° (E) 02:53:16 437.125 CW, 437.150 USB
Oscar 16 18 Apr 02:55:54 02:59:08 16° 92° (E) 03:02:21 437.025 USB, Beacon 2401.1428
PCSat 18 Apr 03:05:15 03:10:39 76° 300° (WNW) 03:16:05 145.825 MHz
OPAL 18 Apr 03:11:55 03:15:48 23° 62° (ENE) 03:19:44 ?
SO-50 18 Apr 03:15:45 03:20:14 48° 243° (WSW) 03:24:46 436.795 FM
Uribyol 2 18 Apr 03:27:27 03:30:43 17° 92° (E) 03:33:59 436.500 FM
Sapphire 18 Apr 04:04:31 04:09:11 29° 310° (NW) 04:13:52 437.095 MHz 1200 baud AX-25 AFSK
AO-27 18 Apr 04:05:28 04:10:16 38° 98° (E) 04:15:03 436.795 MHz FM
KITSAT 1 18 Apr 04:09:36 04:16:52 38° 108° (ESE) 04:24:09 435.175 FM
UOSAT-12 18 Apr 04:09:47 04:14:12 38° 51° (NE) 04:18:34 437.025 FM, 437.400 FM
ITAMSAT 1 18 Apr 04:16:34 04:21:33 47° 100° (E) 04:26:31 435.822 SSB
Oscar 19 18 Apr 04:25:44 04:30:56 74° 286° (WNW) 04:36:07 437.125 CW, 437.150 USB
Oscar 16 18 Apr 04:33:45 04:38:51 58° 287° (WNW) 04:43:56 437.025 USB, Beacon 2401.1428
TMSAT-1 18 Apr 04:37:23 04:40:40 17° 91° (E) 04:43:56 436.925 FM
AO-Echo 18 Apr 04:43:17 04:48:05 70° 102° (ESE) 04:52:46 ?
OPAL 18 Apr 04:49:40 04:54:24 43° 259° (W) 04:59:14 ?
PCSat 18 Apr 04:52:20 04:55:01 14° 320° (NW) 04:57:42 145.825 MHz
Uribyol 2 18 Apr 05:05:29 05:10:33 57° 288° (WNW) 05:15:36 436.500 FM
AO-7 18 Apr 05:18:34 05:22:15 13° 88° (E) 05:25:54 29.400 - 29.500 MHz
Gurwin Techsat 1B 18 Apr 05:26:14 05:31:33 68° 102° (ESE) 05:36:49 435.225 FM
AO-27 18 Apr 05:45:21 05:49:35 26° 294° (WNW) 05:53:49 436.795 MHz FM
UOSAT-12 18 Apr 05:50:18 05:54:11 26° 248° (WSW) 05:58:01 437.025 FM, 437.400 FM
ITAMSAT 1 18 Apr 05:56:53 06:00:42 21° 296° (WNW) 06:04:32 435.822 SSB
KITSAT 1 18 Apr 06:04:13 06:12:02 51° 308° (NW) 06:19:56 435.175 FM
TMSAT-1 18 Apr 06:15:46 06:20:58 59° 287° (WNW) 06:26:09 436.925 FM
AO-Echo 18 Apr 06:24:05 06:26:14 13° 299° (WNW) 06:28:22 ?
JAS-1B 18 Apr 06:30:23 06:36:05 79° 104° (ESE) 06:41:58 435.800 - 435.900 CW/SSB
Uosat F 18 Apr 06:38:28 06:43:30 86° 104° (ESE) 06:48:30 435.120 FM
Gurwin Techsat 1B 18 Apr 07:07:48 07:10:55 16° 299° (WNW) 07:14:02 435.225 FM
AO-7 18 Apr 07:07:54 07:16:15 77° 106° (ESE) 07:24:35 29.400 - 29.500 MHz
STRAND 1 18 Apr 07:25:13 07:29:29 27° 66° (ENE) 07:33:45 ?
KITSAT 1 18 Apr 08:05:07 08:09:40 16° 333° (NNW) 08:14:13 435.175 FM
AO-40 18 Apr 08:08:32 11:48:42 27° 140° (SE) 13:20:50 Beacon 2401.320
Uosat F 18 Apr 08:19:50 08:21:33 12° 301° (WNW) 08:23:16 435.120 FM
JAS-2 18 Apr 08:21:05 08:24:11 15° 92° (E) 08:27:26 435.800 - 435.900 CW/SSB, 435.910 FM
JAS-1B 18 Apr 08:23:25 08:26:04 14° 302° (WNW) 08:28:42 435.800 - 435.900 CW/SSB
RS-15 18 Apr 08:28:52 08:39:51 57° 113° (ESE) 08:50:27 29.354 - 29.394 USB, Beacon 29.352 USB
Hamsat 18 Apr 08:58:12 09:02:32 70° 284° (WNW) 09:06:52 145.90 MHz
AO-7 18 Apr 09:01:52 09:08:13 25° 305° (NW) 09:14:36 29.400 - 29.500 MHz
STRAND 1 18 Apr 09:03:52 09:08:31 35° 263° (W) 09:13:12 ?
MaSat-1 18 Apr 09:17:18 09:20:15 86° 245° (WSW) 09:23:46 437.345 MHz
SO-67 18 Apr 09:57:09 10:00:38 68° 283° (WNW) 10:04:06 435.3500 MHz FM
JAS-2 18 Apr 10:04:22 10:09:39 65° 286° (WNW) 10:15:26 435.800 - 435.900 CW/SSB, 435.910 FM
PCSat 18 Apr 10:12:09 10:14:53 14° 41° (NE) 10:17:36 145.825 MHz
RS-15 18 Apr 10:41:53 10:52:29 45° 315° (NW) 11:02:53 29.354 - 29.394 USB, Beacon 29.352 USB
Sapphire 18 Apr 11:09:03 11:13:54 32° 52° (NE) 11:18:42 437.095 MHz 1200 baud AX-25 AFSK
HO-68 18 Apr 11:27:01 11:34:04 57° 102° (ESE) 11:41:06 435.675 MHz FM
FUNcube-1 18 Apr 11:51:40 11:53:12 12° 91° (E) 11:54:45 145.950 - 145.970 MHz USB
PCSat 18 Apr 11:53:47 11:59:14 76° 61° (ENE) 12:04:38 145.825 MHz
Saudisat 1A 18 Apr 11:54:09 11:55:33 11° 107° (ESE) 11:56:58 436.775 MHz
PANSAT 18 Apr 11:59:34 12:01:27 13° 173° (S) 12:03:20 not established
KITSAT 1 18 Apr 12:03:05 12:08:56 21° 35° (NE) 12:14:44 435.175 FM
Oscar 11 18 Apr 12:04:13 12:08:31 55° 100° (E) 12:12:47 145.825 FM, Beacon 2401.500 USB
Sapphire 18 Apr 12:52:23 12:57:20 37° 250° (WSW) 13:02:15 437.095 MHz 1200 baud AX-25 AFSK
RS-15 18 Apr 13:01:16 13:08:44 20° 348° (NNW) 13:16:11 29.354 - 29.394 USB, Beacon 29.352 USB
HO-68 18 Apr 13:15:26 13:21:21 29° 299° (WNW) 13:27:15 435.675 MHz FM
FUNcube-1 18 Apr 13:25:47 13:29:57 57° 286° (WNW) 13:34:11 145.950 - 145.970 MHz USB
Saudisat 1A 18 Apr 13:30:06 13:34:33 73° 303° (WNW) 13:39:02 436.775 MHz
PANSAT 18 Apr 13:39:01 13:40:57 13° 186° (S) 13:42:54 not established
PCSat 18 Apr 13:39:18 13:41:56 14° 257° (WSW) 13:44:34 145.825 MHz
Oscar 11 18 Apr 13:42:02 13:44:14 14° 296° (WNW) 13:46:27 145.825 FM, Beacon 2401.500 USB
KITSAT 1 18 Apr 13:57:40 14:05:49 74° 58° (ENE) 14:13:52 435.175 FM
Oscar 19 18 Apr 14:04:51 14:08:21 19° 63° (ENE) 14:11:52 437.125 CW, 437.150 USB
Oscar 16 18 Apr 14:12:16 14:16:16 24° 65° (ENE) 14:20:17 437.025 USB, Beacon 2401.1428
AO-Echo 18 Apr 14:20:58 14:22:23 11° 60° (ENE) 14:23:47 ?
Uribyol 2 18 Apr 14:44:40 14:48:49 25° 66° (ENE) 14:52:58 436.500 FM
Gurwin Techsat 1B 18 Apr 15:10:27 15:12:53 13° 60° (ENE) 15:15:20 435.225 FM
Saudisat 1A 18 Apr 15:13:27 15:14:57 11° 322° (NW) 15:16:27 436.775 MHz
RS-15 18 Apr 15:18:14 15:26:39 24° 24° (NNE) 15:35:06 29.354 - 29.394 USB, Beacon 29.352 USB
AO-27 18 Apr 15:23:01 15:28:04 55° 72° (ENE) 15:33:08 436.795 MHz FM
JAS-1B 18 Apr 15:29:01 15:31:41 12° 56° (ENE) 15:34:12 435.800 - 435.900 CW/SSB
ITAMSAT 1 18 Apr 15:34:00 15:39:09 68° 73° (ENE) 15:44:18 435.822 SSB
Oscar 19 18 Apr 15:42:15 15:47:15 54° 260° (W) 15:52:19 437.125 CW, 437.150 USB
Oscar 16 18 Apr 15:50:31 15:55:20 42° 262° (W) 16:00:14 437.025 USB, Beacon 2401.1428
KITSAT 1 18 Apr 15:54:24 16:00:23 23° 257° (WSW) 16:06:20 435.175 FM
AO-Echo 18 Apr 15:55:06 16:00:23 85° 76° (ENE) 16:05:33 ?
TMSAT-1 18 Apr 15:57:23 16:01:39 25° 66° (ENE) 16:05:56 436.925 FM
Uosat F 18 Apr 16:15:34 16:18:02 14° 61° (ENE) 16:20:30 435.120 FM
AO-7 18 Apr 16:16:40 16:22:31 22° 53° (NE) 16:28:22 29.400 - 29.500 MHz
ISS 18 Apr 16:23:03 16:24:49 14° 129° (SE) 16:26:35 145.800 FM
Uribyol 2 18 Apr 16:23:16 16:28:04 39° 262° (W) 16:32:54 436.500 FM
